Location: Düngen
(52.0952°N, 10.0219°E)
Time: 19:34:45
(UTC+00:00)

NOSS 3-2 (A) - Pass Details

Date: 11 March 2026
Orbit: 669 x 1534 km, 63.4° (Epoch: 2 January)

Event Time Altitude Azimuth Distance (km) Brightness Sun altitude
Rises 17:46:02 0° 196° (SSW) 3,076 6.3 -5.2°
Reaches altitude 10° 17:48:20 10° 189° (S) 2,220 5.5 -5.6°
Maximum altitude 17:52:59 40° 120° (ESE) 1,183 3.6 -6.3°
Drops below altitude 10° 17:58:30 10° 53° (NE) 2,633 5.3 -7.2°
Sets 18:01:26 0° 47° (NE) 3,724 6.1 -7.6°
